BAW814L EGLL-EKCH

Flight info

Callsign BAW814L
Flight time 1h 23m
Altitude 35000
Route BPK Q295 SOMVA DCT MAVAS DCT ROCZO DCT DOSUR P729 TUDLO
Aircraft A320/M-SDE3FGHIRWY/LB1

Departure

Time 2026-04-26 15:11
Airport London Heathrow Airport (EGLL)

Arrival

Time 2026-04-26 16:34
Airport Copenhagen Kastrup Airport (EKCH)
Time Latitude Longitude Altitude Speed Heading
2026-04-26 14:39 51.47188 -0.48599 87 ft 0 kts 269°
2026-04-26 14:59 51.47187 -0.48562 88 ft 4 kts 272°
2026-04-26 14:59 51.47186 -0.48519 86 ft 4 kts 269°
2026-04-26 14:59 51.47187 -0.48492 86 ft 4 kts 249°
2026-04-26 15:00 51.47196 -0.48473 86 ft 0 kts 179°
2026-04-26 15:01 51.47187 -0.48473 89 ft 3 kts 180°
2026-04-26 15:01 51.47153 -0.48472 86 ft 6 kts 179°
2026-04-26 15:01 51.47101 -0.48472 88 ft 9 kts 179°
2026-04-26 15:01 51.47034 -0.48471 89 ft 11 kts 179°
2026-04-26 15:02 51.46958 -0.48470 88 ft 12 kts 179°
2026-04-26 15:02 51.46869 -0.48469 88 ft 14 kts 179°
2026-04-26 15:02 51.46801 -0.48469 86 ft 10 kts 180°
2026-04-26 15:02 51.46727 -0.48468 86 ft 12 kts 179°
2026-04-26 15:03 51.46654 -0.48416 86 ft 13 kts 104°
2026-04-26 15:03 51.46651 -0.48262 86 ft 12 kts 99°
2026-04-26 15:03 51.46608 -0.48214 87 ft 0 kts 179°
2026-04-26 15:08 51.46599 -0.48213 87 ft 5 kts 179°
2026-04-26 15:08 51.46554 -0.48213 89 ft 7 kts 179°
2026-04-26 15:08 51.46528 -0.48212 88 ft 0 kts 179°
2026-04-26 15:08 51.46527 -0.48212 88 ft 1 kts 179°
2026-04-26 15:09 51.46477 -0.48170 89 ft 9 kts 113°
2026-04-26 15:09 51.46480 -0.48136 88 ft 0 kts 92°
2026-04-26 15:10 51.46480 -0.48133 89 ft 5 kts 92°
2026-04-26 15:10 51.46482 -0.47663 86 ft 78 kts 89°
2026-04-26 15:11 51.46487 -0.46528 93 ft 130 kts 89°
2026-04-26 15:11 51.46495 -0.44761 212 ft 171 kts 89°
2026-04-26 15:11 51.46516 -0.42884 967 ft 170 kts 88°
2026-04-26 15:11 51.46680 -0.40965 1670 ft 177 kts 72°
2026-04-26 15:12 51.47329 -0.39236 2286 ft 190 kts 50°
2026-04-26 15:12 51.48244 -0.37590 2879 ft 205 kts 51°
2026-04-26 15:12 51.49201 -0.35785 3396 ft 223 kts 51°
2026-04-26 15:12 51.50241 -0.33741 3822 ft 250 kts 52°
2026-04-26 15:13 51.51372 -0.31516 4411 ft 252 kts 51°
2026-04-26 15:13 51.52502 -0.29324 5098 ft 261 kts 51°
2026-04-26 15:13 51.53693 -0.27046 5831 ft 271 kts 51°
2026-04-26 15:13 51.54863 -0.24624 6669 ft 277 kts 54°
2026-04-26 15:14 51.56080 -0.22188 7492 ft 282 kts 47°
2026-04-26 15:14 51.57514 -0.20011 8303 ft 287 kts 40°
2026-04-26 15:14 51.59143 -0.18141 9149 ft 290 kts 26°
2026-04-26 15:14 51.61047 -0.17008 9978 ft 293 kts 13°
2026-04-26 15:15 51.63040 -0.16187 10564 ft 305 kts 15°
2026-04-26 15:15 51.64999 -0.14639 10918 ft 323 kts 38°
2026-04-26 15:15 51.66458 -0.11858 11530 ft 330 kts 63°
2026-04-26 15:15 51.67289 -0.08393 12222 ft 334 kts 71°
2026-04-26 15:16 51.68040 -0.04827 12925 ft 337 kts 72°
2026-04-26 15:16 51.68782 -0.01215 13641 ft 341 kts 72°
2026-04-26 15:16 51.69526 0.02430 14268 ft 346 kts 72°
2026-04-26 15:16 51.70022 0.04861 14674 ft 348 kts 72°
2026-04-26 15:17 51.70791 0.08614 15301 ft 352 kts 72°
2026-04-26 15:17 51.71314 0.11158 15719 ft 355 kts 72°
2026-04-26 15:17 51.72348 0.16194 16576 ft 359 kts 72°
2026-04-26 15:17 51.73135 0.20029 17195 ft 362 kts 72°
2026-04-26 15:18 51.73930 0.23898 17811 ft 365 kts 72°
2026-04-26 15:18 51.74735 0.27809 18431 ft 369 kts 72°
2026-04-26 15:18 51.75545 0.31760 18986 ft 372 kts 72°
2026-04-26 15:18 51.76358 0.35743 19520 ft 376 kts 72°
2026-04-26 15:19 51.77176 0.39771 20056 ft 379 kts 72°
2026-04-26 15:19 51.78002 0.43842 20584 ft 383 kts 72°
2026-04-26 15:19 51.78835 0.47953 21104 ft 387 kts 72°
2026-04-26 15:19 51.79676 0.52101 21604 ft 390 kts 72°
2026-04-26 15:20 51.80523 0.56287 22113 ft 393 kts 72°
2026-04-26 15:20 51.81374 0.60504 22636 ft 396 kts 71°
2026-04-26 15:20 51.82231 0.64750 23175 ft 399 kts 71°
2026-04-26 15:20 51.83094 0.69033 23703 ft 402 kts 71°
2026-04-26 15:21 51.83960 0.73345 24162 ft 406 kts 71°
2026-04-26 15:21 51.84831 0.77701 24587 ft 409 kts 72°
2026-04-26 15:21 51.85707 0.82104 25054 ft 412 kts 72°
2026-04-26 15:21 51.86599 0.86532 25476 ft 415 kts 70°
2026-04-26 15:22 51.87603 0.90919 25897 ft 418 kts 68°
2026-04-26 15:22 51.88719 0.95292 26307 ft 421 kts 66°
2026-04-26 15:22 51.89891 0.99655 26726 ft 424 kts 65°
2026-04-26 15:22 51.91078 1.04032 27141 ft 426 kts 65°
2026-04-26 15:23 51.92261 1.08446 27522 ft 429 kts 65°
2026-04-26 15:23 51.93435 1.12909 27916 ft 432 kts 66°
2026-04-26 15:23 51.94595 1.17421 28300 ft 435 kts 66°
2026-04-26 15:23 51.95741 1.21960 28666 ft 438 kts 66°
2026-04-26 15:24 51.96893 1.26555 29022 ft 441 kts 66°
2026-04-26 15:24 51.98041 1.31141 29371 ft 443 kts 66°
2026-04-26 15:24 51.99212 1.35817 29730 ft 446 kts 66°
2026-04-26 15:24 52.00373 1.40433 30074 ft 449 kts 66°
2026-04-26 15:25 52.01575 1.45206 30421 ft 452 kts 66°
2026-04-26 15:25 52.02747 1.49875 30714 ft 455 kts 66°
2026-04-26 15:25 52.03945 1.54652 31004 ft 458 kts 66°
2026-04-26 15:25 52.05150 1.59462 31302 ft 461 kts 66°
2026-04-26 15:26 52.06363 1.64301 31608 ft 464 kts 66°
2026-04-26 15:26 52.07579 1.69172 31931 ft 466 kts 66°
2026-04-26 15:26 52.08790 1.74046 32314 ft 466 kts 66°
2026-04-26 15:26 52.09997 1.78925 32773 ft 464 kts 66°
2026-04-26 15:27 52.11195 1.83788 33226 ft 463 kts 66°
2026-04-26 15:27 52.12406 1.88709 33686 ft 462 kts 65°
2026-04-26 15:27 52.13583 1.93486 34131 ft 460 kts 65°
2026-04-26 15:27 52.14772 1.98317 34530 ft 459 kts 65°
2026-04-26 15:28 52.15957 2.03147 34875 ft 459 kts 65°
2026-04-26 15:28 52.17134 2.07961 35212 ft 458 kts 65°
2026-04-26 15:28 52.18310 2.12786 35317 ft 456 kts 65°
2026-04-26 15:28 52.19456 2.17516 35337 ft 442 kts 65°
2026-04-26 15:29 52.21681 2.26732 35340 ft 434 kts 65°
2026-04-26 15:30 52.26129 2.45137 35355 ft 447 kts 65°
2026-04-26 15:30 52.28442 2.54755 35344 ft 463 kts 65°
2026-04-26 15:31 52.31665 2.69745 35343 ft 469 kts 71°
2026-04-26 15:32 52.34065 2.83365 35343 ft 469 kts 71°
2026-04-26 15:32 52.36174 2.95337 35341 ft 469 kts 71°
2026-04-26 15:33 52.37960 3.05607 35354 ft 469 kts 71°
2026-04-26 15:33 52.39885 3.15779 35350 ft 465 kts 62°
2026-04-26 15:34 52.43155 3.24798 35360 ft 459 kts 52°
2026-04-26 15:34 52.46699 3.33521 35358 ft 460 kts 52°
2026-04-26 15:35 52.50227 3.42270 35373 ft 460 kts 52°
2026-04-26 15:35 52.53743 3.51034 35379 ft 460 kts 52°
2026-04-26 15:36 52.57265 3.59818 35373 ft 460 kts 52°
2026-04-26 15:36 52.60775 3.68589 35372 ft 459 kts 52°
2026-04-26 15:37 52.64279 3.77406 35369 ft 459 kts 52°
2026-04-26 15:37 52.67763 3.86224 35361 ft 459 kts 52°
2026-04-26 15:38 52.71244 3.95052 35371 ft 459 kts 52°
2026-04-26 15:38 52.74729 4.03879 35372 ft 459 kts 52°
2026-04-26 15:39 52.78203 4.12713 35367 ft 459 kts 52°
2026-04-26 15:39 52.81083 4.20078 35367 ft 459 kts 53°
2026-04-26 15:40 52.85118 4.30438 35360 ft 458 kts 53°
2026-04-26 15:40 52.88564 4.39331 35365 ft 458 kts 53°
2026-04-26 15:41 52.92000 4.48224 35363 ft 458 kts 53°
2026-04-26 15:41 52.95433 4.57136 35371 ft 459 kts 53°
2026-04-26 15:42 52.98864 4.66065 35372 ft 459 kts 53°
2026-04-26 15:42 53.02292 4.75017 35373 ft 459 kts 53°
2026-04-26 15:43 53.05711 4.83990 35373 ft 460 kts 53°
2026-04-26 15:44 53.10801 4.97407 35372 ft 460 kts 53°
2026-04-26 15:44 53.15913 5.10931 35403 ft 460 kts 53°
2026-04-26 15:45 53.20992 5.24470 35384 ft 459 kts 53°
2026-04-26 15:46 53.26056 5.38018 35378 ft 458 kts 53°
2026-04-26 15:46 53.29018 5.45430 35382 ft 456 kts 50°
2026-04-26 15:47 53.35199 5.59704 35372 ft 456 kts 50°
2026-04-26 15:48 53.38879 5.68350 35382 ft 456 kts 50°
2026-04-26 15:48 53.42518 5.77067 35379 ft 456 kts 50°
2026-04-26 15:49 53.46140 5.85805 35389 ft 456 kts 51°
2026-04-26 15:49 53.49765 5.94553 35391 ft 457 kts 51°
2026-04-26 15:50 53.53391 6.03321 35387 ft 457 kts 51°
2026-04-26 15:50 53.57018 6.12100 35382 ft 457 kts 51°
2026-04-26 15:51 53.60637 6.20880 35398 ft 457 kts 51°
2026-04-26 15:51 53.64253 6.29685 35387 ft 457 kts 51°
2026-04-26 15:52 53.67851 6.38492 35381 ft 456 kts 51°
2026-04-26 15:52 53.71449 6.47331 35376 ft 456 kts 51°
2026-04-26 15:53 53.75033 6.56168 35373 ft 456 kts 51°
2026-04-26 15:53 53.78587 6.64968 35372 ft 456 kts 51°
2026-04-26 15:54 53.82161 6.73846 35387 ft 456 kts 51°
2026-04-26 15:54 53.85726 6.82730 35390 ft 457 kts 51°
2026-04-26 15:55 53.89316 6.91707 35381 ft 457 kts 51°
2026-04-26 15:55 53.92848 7.00573 35374 ft 457 kts 51°
2026-04-26 15:56 53.96399 7.09513 35371 ft 457 kts 51°
2026-04-26 15:56 53.99940 7.18462 35369 ft 457 kts 52°
2026-04-26 15:57 54.03478 7.27434 35392 ft 457 kts 52°
2026-04-26 15:57 54.07011 7.36417 35379 ft 457 kts 52°
2026-04-26 15:58 54.10535 7.45439 35382 ft 457 kts 52°
2026-04-26 15:58 54.14051 7.54458 35376 ft 457 kts 52°
2026-04-26 15:59 54.17563 7.63494 35372 ft 457 kts 52°
2026-04-26 15:59 54.21070 7.72552 35372 ft 457 kts 52°
2026-04-26 16:00 54.24571 7.81626 35389 ft 457 kts 52°
2026-04-26 16:00 54.28062 7.90706 35380 ft 457 kts 52°
2026-04-26 16:01 54.31549 7.99810 35372 ft 457 kts 52°
2026-04-26 16:01 54.34441 8.07386 35374 ft 457 kts 53°
2026-04-26 16:02 54.37917 8.16534 35356 ft 458 kts 53°
2026-04-26 16:02 54.41388 8.25695 35348 ft 458 kts 53°
2026-04-26 16:03 54.44854 8.34877 35352 ft 458 kts 53°
2026-04-26 16:03 54.48322 8.44083 35368 ft 458 kts 53°
2026-04-26 16:04 54.51779 8.53297 35359 ft 458 kts 53°
2026-04-26 16:04 54.55229 8.62533 35354 ft 458 kts 53°
2026-04-26 16:05 54.58662 8.71778 35351 ft 459 kts 53°
2026-04-26 16:05 54.62095 8.81049 35346 ft 459 kts 53°
2026-04-26 16:06 54.65530 8.90324 35340 ft 459 kts 53°
2026-04-26 16:06 54.68963 8.99643 35360 ft 459 kts 53°
2026-04-26 16:07 54.72374 9.08957 35346 ft 459 kts 53°
2026-04-26 16:07 54.75780 9.18289 35337 ft 459 kts 53°
2026-04-26 16:08 54.79186 9.27646 35337 ft 459 kts 53°
2026-04-26 16:08 54.82574 9.37010 35324 ft 459 kts 53°
2026-04-26 16:09 54.85967 9.46421 34612 ft 466 kts 53°
2026-04-26 16:09 54.87681 9.51181 33784 ft 459 kts 54°
2026-04-26 16:09 54.89340 9.55817 33210 ft 446 kts 53°
2026-04-26 16:09 54.90949 9.60332 32894 ft 436 kts 53°
2026-04-26 16:10 54.92555 9.64820 32461 ft 438 kts 53°
2026-04-26 16:10 54.94165 9.69312 31984 ft 436 kts 53°
2026-04-26 16:10 54.95764 9.73782 31520 ft 433 kts 53°
2026-04-26 16:10 54.97326 9.78160 31057 ft 430 kts 53°
2026-04-26 16:11 54.98910 9.82622 30613 ft 426 kts 53°
2026-04-26 16:11 55.00469 9.87018 30149 ft 428 kts 53°
2026-04-26 16:11 55.02018 9.91379 29722 ft 431 kts 53°
2026-04-26 16:11 55.03610 9.95873 29259 ft 430 kts 53°
2026-04-26 16:12 55.05178 10.00306 28839 ft 427 kts 54°
2026-04-26 16:12 55.06724 10.04716 28417 ft 425 kts 53°
2026-04-26 16:12 55.09763 10.13409 27564 ft 420 kts 53°
2026-04-26 16:13 55.11280 10.17749 27138 ft 417 kts 53°
2026-04-26 16:13 55.12788 10.22053 26694 ft 415 kts 53°
2026-04-26 16:13 55.14290 10.26342 26257 ft 412 kts 53°
2026-04-26 16:13 55.15780 10.30612 25796 ft 411 kts 53°
2026-04-26 16:14 55.17261 10.34873 25343 ft 409 kts 53°
2026-04-26 16:14 55.18736 10.39130 24867 ft 409 kts 54°
2026-04-26 16:14 55.21667 10.47604 24175 ft 402 kts 53°
2026-04-26 16:15 55.23101 10.51753 23850 ft 397 kts 53°
2026-04-26 16:15 55.24522 10.55868 23072 ft 390 kts 53°
2026-04-26 16:15 55.25918 10.59918 22503 ft 387 kts 53°
2026-04-26 16:16 55.28224 10.68453 21609 ft 392 kts 69°
2026-04-26 16:16 55.29001 10.73023 21173 ft 389 kts 69°
2026-04-26 16:16 55.29774 10.77567 20729 ft 389 kts 69°
2026-04-26 16:16 55.30542 10.82098 20310 ft 386 kts 69°
2026-04-26 16:17 55.31303 10.86596 19841 ft 383 kts 69°
2026-04-26 16:17 55.32056 10.91069 19408 ft 381 kts 69°
2026-04-26 16:17 55.32798 10.95510 18971 ft 378 kts 69°
2026-04-26 16:17 55.33537 10.99936 18522 ft 376 kts 69°
2026-04-26 16:18 55.34269 11.04324 18065 ft 373 kts 69°
2026-04-26 16:18 55.35709 11.12974 17227 ft 366 kts 69°
2026-04-26 16:19 55.37124 11.21495 16387 ft 360 kts 68°
2026-04-26 16:19 55.37825 11.25708 15968 ft 358 kts 68°
2026-04-26 16:19 55.38984 11.32724 15157 ft 357 kts 69°
2026-04-26 16:20 55.39891 11.38278 14728 ft 350 kts 69°
2026-04-26 16:20 55.41223 11.46448 13937 ft 345 kts 69°
2026-04-26 16:20 55.41878 11.50481 13512 ft 342 kts 69°
2026-04-26 16:21 55.42528 11.54490 13134 ft 338 kts 69°
2026-04-26 16:21 55.43160 11.58412 12956 ft 329 kts 69°
2026-04-26 16:21 55.43837 11.62217 12638 ft 321 kts 62°
2026-04-26 16:21 55.44880 11.65609 12287 ft 312 kts 49°
2026-04-26 16:22 55.46111 11.68736 11908 ft 310 kts 50°
2026-04-26 16:22 55.47326 11.71857 11542 ft 308 kts 50°
2026-04-26 16:22 55.48529 11.74964 11215 ft 305 kts 50°
2026-04-26 16:22 55.49720 11.78055 10845 ft 304 kts 50°
2026-04-26 16:23 55.50903 11.81127 10577 ft 301 kts 50°
2026-04-26 16:23 55.52075 11.84174 10328 ft 299 kts 50°
2026-04-26 16:23 55.53242 11.87204 10082 ft 298 kts 51°
2026-04-26 16:23 55.54402 11.90228 9831 ft 297 kts 51°
2026-04-26 16:24 55.55552 11.93235 9616 ft 296 kts 51°
2026-04-26 16:24 55.56702 11.96245 9390 ft 295 kts 51°
2026-04-26 16:24 55.57848 11.99254 9148 ft 294 kts 51°
2026-04-26 16:24 55.58986 12.02251 8900 ft 293 kts 51°
2026-04-26 16:25 55.60123 12.05240 8683 ft 293 kts 51°
2026-04-26 16:25 55.61258 12.08225 8448 ft 292 kts 51°
2026-04-26 16:25 55.62517 12.10997 8217 ft 286 kts 39°
2026-04-26 16:25 55.63973 12.13266 7817 ft 274 kts 36°
2026-04-26 16:26 55.65406 12.15438 7660 ft 273 kts 36°
2026-04-26 16:26 55.66317 12.16995 7262 ft 282 kts 48°
2026-04-26 16:26 55.67289 12.21293 6540 ft 285 kts 84°
2026-04-26 16:26 55.67028 12.24749 5913 ft 285 kts 111°
2026-04-26 16:27 55.65954 12.27627 5426 ft 276 kts 139°
2026-04-26 16:27 55.64377 12.29361 5182 ft 264 kts 163°
2026-04-26 16:27 55.62610 12.29843 4948 ft 254 kts 187°
2026-04-26 16:27 55.60939 12.29261 4715 ft 237 kts 198°
2026-04-26 16:28 55.59370 12.28550 4501 ft 230 kts 198°
2026-04-26 16:28 55.57819 12.27843 4326 ft 230 kts 198°
2026-04-26 16:28 55.56274 12.27137 4260 ft 229 kts 198°
2026-04-26 16:28 55.54726 12.26424 4206 ft 230 kts 198°
2026-04-26 16:29 55.53181 12.25705 4105 ft 229 kts 198°
2026-04-26 16:29 55.51646 12.24987 4003 ft 229 kts 197°
2026-04-26 16:29 55.50060 12.24889 3980 ft 234 kts 168°
2026-04-26 16:29 55.48651 12.26260 3985 ft 239 kts 141°
2026-04-26 16:30 55.47457 12.28293 3854 ft 238 kts 135°
2026-04-26 16:30 55.46368 12.30478 3678 ft 239 kts 126°
2026-04-26 16:30 55.45660 12.33128 3554 ft 240 kts 104°
2026-04-26 16:30 55.45504 12.36064 3472 ft 237 kts 83°
2026-04-26 16:31 55.45902 12.38830 3460 ft 235 kts 63°
2026-04-26 16:31 55.46794 12.41215 3305 ft 232 kts 43°
2026-04-26 16:31 55.47995 12.43110 3014 ft 231 kts 38°
2026-04-26 16:31 55.49211 12.44963 2699 ft 231 kts 38°
2026-04-26 16:32 55.50423 12.46816 2389 ft 231 kts 38°
2026-04-26 16:32 55.51240 12.48070 2167 ft 231 kts 38°
2026-04-26 16:32 55.52842 12.50531 1741 ft 230 kts 38°
2026-04-26 16:32 55.54046 12.52383 1408 ft 227 kts 38°
2026-04-26 16:33 55.55210 12.54175 1127 ft 217 kts 38°
2026-04-26 16:33 55.56320 12.55884 826 ft 206 kts 38°
2026-04-26 16:33 55.57350 12.57474 589 ft 187 kts 37°
2026-04-26 16:33 55.58292 12.58929 336 ft 170 kts 38°
2026-04-26 16:34 55.59120 12.60219 104 ft 151 kts 35°
2026-04-26 16:34 55.59853 12.61315 24 ft 118 kts 40°
2026-04-26 16:34 55.60359 12.62101 23 ft 67 kts 41°
2026-04-26 16:34 55.60588 12.62493 27 ft 41 kts 54°
2026-04-26 16:35 55.60671 12.62828 24 ft 15 kts 71°
2026-04-26 16:35 55.60686 12.62859 25 ft 0 kts 49°
2026-04-26 16:36 55.60689 12.62866 24 ft 3 kts 52°
2026-04-26 16:36 55.60706 12.62956 26 ft 13 kts 72°
2026-04-26 16:36 55.60738 12.63118 24 ft 15 kts 70°
2026-04-26 16:36 55.60775 12.63309 27 ft 18 kts 71°
2026-04-26 16:37 55.60820 12.63527 26 ft 19 kts 64°
2026-04-26 16:37 55.60921 12.63695 26 ft 22 kts 34°
2026-04-26 16:37 55.61053 12.63854 24 ft 24 kts 32°
2026-04-26 16:37 55.61150 12.63963 27 ft 26 kts 32°
2026-04-26 16:38 55.61308 12.64141 27 ft 19 kts 33°
2026-04-26 16:38 55.61427 12.64280 24 ft 22 kts 33°
2026-04-26 16:38 55.61555 12.64426 26 ft 20 kts 33°
2026-04-26 16:38 55.61681 12.64570 24 ft 22 kts 32°
2026-04-26 16:39 55.61780 12.64684 24 ft 12 kts 33°
2026-04-26 16:39 55.61812 12.64721 26 ft 0 kts 34°
2026-04-26 16:39 55.61814 12.64724 26 ft 2 kts 34°
2026-04-26 16:40 55.61863 12.64780 24 ft 13 kts 33°
2026-04-26 16:40 55.61958 12.64889 26 ft 19 kts 32°
2026-04-26 16:40 55.62060 12.64877 25 ft 16 kts 306°
2026-04-26 16:40 55.62137 12.64720 25 ft 17 kts 346°
2026-04-26 16:41 55.62235 12.64803 26 ft 9 kts 36°
2026-04-26 16:41 55.62295 12.64876 25 ft 12 kts 33°
2026-04-26 16:41 55.62315 12.64989 26 ft 10 kts 114°
2026-04-26 16:41 55.62273 12.65091 24 ft 7 kts 124°
2026-04-26 16:42 55.62270 12.65096 24 ft 0 kts 124°
2026-04-26 16:42 55.62270 12.65102 24 ft 0 kts 102°
2026-04-26 16:42 55.62278 12.65138 24 ft 7 kts 69°
2026-04-26 16:43 55.62317 12.65201 24 ft 9 kts 20°
2026-04-26 16:43 55.62387 12.65203 24 ft 4 kts 359°
2026-04-26 16:43 55.62426 12.65201 24 ft 7 kts 358°
2026-04-26 16:43 55.62490 12.65187 24 ft 11 kts 355°
2026-04-26 16:44 55.62578 12.65182 26 ft 14 kts 358°
2026-04-26 16:44 55.62630 12.65185 24 ft 12 kts
2026-04-26 16:44 55.62685 12.65160 24 ft 1 kts 295°
2026-04-26 16:44 55.62688 12.65139 24 ft 3 kts 287°
2026-04-26 16:45 55.62693 12.65112 26 ft 0 kts 288°
2026-04-26 16:45 55.62696 12.65097 24 ft 2 kts 289°
2026-04-26 16:45 55.62700 12.65078 24 ft 0 kts 290°
2026-04-26 16:45 55.62701 12.65076 24 ft 0 kts 290°